Regional Weather Roundup
Issued by NWS

Home | Current Version | Previous Version | Graphics & Text | Print | Product List | Glossary On
Versions: 1 2 3 4 5 6 7 8 9 10 11 12 13 14 15 16 17 18 19 20 21 22 23 24 25 26 27 28 29 30 31 32 33 34 35 36 37 38 39 40 41 42 43 44 45 46 47 48 49 50
000
ASUS45 KBOU 172207
RWRCO

WEATHER ROUNDUP FOR COLORADO
NATIONAL WEATHER SERVICE DENVER/BOULDER CO
400 PM MDT TUE OCT 17 2017

NOTE: "FAIR" INDICATES FEW OR NO CLOUDS BELOW 12000 FEET WITH NO
SIGNIFICANT WEATHER AND/OR OBSTRUCTIONS TO VISIBILITY.

COZ001>005-013-030-031-172300-
...NORTHWEST COLORADO...

CITY           SKY/WX    TMP DP  RH WIND       PRES   REMARKS
CRAIG          FAIR      70   4   7 W10       30.23F
HAYDEN         FAIR      66  11  11 NW8       30.26F
MEEKER         FAIR      71   4   7 W9        30.23F
RABBIT EARS PA FAIR      48   9  20 W8        30.46S
STEAMBOAT SPGS FAIR      67   8  10 SW8       30.26S
WALDEN         FAIR      61   5  11 SW9       30.32S
$$

COZ006>008-011-172300-
...WEST CENTRAL VALLEYS...

CITY           SKY/WX    TMP DP  RH WIND       PRES   REMARKS
GRAND JUNCTION FAIR      68  15  13 W8        30.22F
MONTROSE       FAIR      68  14  12 N8        30.25F
EAGLE          FAIR      70   4   7 W14G23    30.26F
RIFLE          FAIR      71   2   6 W15       30.22F
DELTA          FAIR      73  11   9 SW9       30.22F
NUCLA          FAIR      72  -4   5 CALM      30.29F
$$

COZ017>023-064>068-172300-
...SOUTHWEST COLORADO...

CITY           SKY/WX    TMP DP  RH WIND       PRES   REMARKS
DURANGO        FAIR      70  11  10 W8        30.27F
CORTEZ         FAIR      71  10   9 S6        30.26F
PAGOSA SPRINGS FAIR      67   6   9 W6        30.33F
TELLURIDE      FAIR      62   1   8 W15G21    30.42S
WOLF CREEK PAS FAIR      48   9  20 S13G20    30.61S
$$

COZ009-010-012-014-032>034-037-058>063-172300-
...CENTRAL COLORADO...

CITY           SKY/WX    TMP DP  RH WIND       PRES   REMARKS
ASPEN          FAIR      67   6   9 N8        30.30F
BUENA VISTA    FAIR      69   2   7 S3        30.28S
COPPER MTN     FAIR      50  -8   9 W13G25    30.55R
BERTHOUD PASS  FAIR      37  30  75 NW32G43   30.53F
COTTONWOOD PAS FAIR      66  -8   5 CALM      30.41S
GUNNISON       FAIR      64   4   9 W6        30.32
KREMMLING      FAIR      73  -6   4 SW13G20   30.29F
LEADVILLE      FAIR      59  -2   8 NW13      30.41S
MONARCH PASS   FAIR      46   3  17 SW16G28   30.66S
SALIDA         NOT AVBL
SUNLIGHT       FAIR      52   5  15 SW9       30.52S
WILKERSON PASS FAIR      55  -2   9 SW7       30.51R
$$

COZ069>075-172300-
...SAN LUIS VALLEY/SANGRE DE CRISTO MOUNTAINS...

CITY           SKY/WX    TMP DP  RH WIND       PRES   REMARKS
ALAMOSA        FAIR      67   6   9 CALM      30.29F
DEL NORTE      NOT AVBL
LA VETA PASS   FAIR      57   7  13 S21G30    30.54S
SAGUACHE       FAIR      68  12  11 S9        30.31F
$$

COZ035-036-038>040-172300-
...NORTHERN COLORADO FRONT RANGE...

CITY           SKY/WX    TMP DP  RH WIND       PRES   REMARKS
DENVER INTL AP FAIR      76  13   9 NW7       30.11F
DMNS CITY PARK   N/A     76  17  10 SE6       30.11S
AURORA         PTSUNNY   74   9   8 NE3       30.14S
FRONT RANGE AP MOSUNNY   77  10   8 NW5       30.14S
ERIE MUNI ARPT FAIR      77   8   7 SW6       30.14S
BOULDER MUN AP FAIR      77  18  10 SW6       30.09F
CENTENNIAL     FAIR      74   1   6 NE3       30.14F
BROOMFIELD     MOSUNNY   77  16  10 S6        30.13F
FORT COLLINS   FAIR      75  24  15 SE6       30.09F
LONGMONT       FAIR      80  16   9 E6        30.09F
$$

COZ041-046-047-076>085-087-088-172300-
...PIKES PEAK/PALMER DIVIDE AND SOUTHERN FOOTHILLS...

CITY           SKY/WX    TMP DP  RH WIND       PRES   REMARKS
COLO. SPRINGS  FAIR      73  12   9 SE7       30.18S
A. F. ACADEMY  FAIR      71   3   7 SE6       30.19S
SCHRIEVER AFB  FAIR      70   9   9 CALM      30.18F
CHEYENNE MTN   FAIR      66  11  11 S9        30.16F
ELLICOTT       FAIR     N/A N/A N/A S8        30.17S
FALCON         FAIR      70   7   8 S7        30.23S
FORT CARSON    FAIR      75   4   6 SE7       30.14F
LIMON          FAIR      73  14  10 S10       30.14S
MONUMENT HILL  FAIR      68   9  10 CALM      30.23S
CANON CITY     SUNNY     82  10   6 SE9       30.10F
WALSENBURG     FAIR      79  18  10 E6        30.16S
TRINIDAD       FAIR      76  14   9 S6        30.15F
$$

COZ042>045-048>051-090-091-172300-
...NORTHEAST COLORADO...

CITY           SKY/WX    TMP DP  RH WIND       PRES   REMARKS
GREELEY ARPT   FAIR      78  18  10 SE6       30.08F
AKRON          FAIR      78  10   7 S8        30.07F
BURLINGTON     FAIR      79  19  10 SE8       30.09F
WRAY           FAIR      81  16   9 S12       30.05S
YUMA           NOT AVBL
STERLING       FAIR      81  18   9 W10       30.02F
HOLYOKE        FAIR      82  19   9 SW12      30.03F
FORT MORGAN    FAIR      79   8   6 W6        30.07F
$$

COZ086-089-092>099-172300-
...SOUTHEAST COLORADO...

CITY           SKY/WX    TMP DP  RH WIND       PRES   REMARKS
PUEBLO         FAIR      80  10   7 S8        30.08F
LA JUNTA       FAIR      79  23  12 SE9       30.07F
LAMAR          FAIR      80  25  13 S7        30.04F
SPRINGFIELD      N/A     75  32  20 S6        30.07F
$$



USA.gov is the U.S. government's official web portal to all federal, state and local government web resources and services.